Погода в Новоорловске

Россия / Забайкальский край     51°03′39″N   114°43′49″E
темп.,
°C
ветер,
м/с
пор.,
м/с
влажн.,
%
обл.,
%
осадки,
мм/ч
давл.,
гПа
погр.,
м
15 мая, сб
сб1500:00+7зсз5115052 0.0 1011663
03:00+5зсз513627 0.0 1013329
06:00+4зсз512590 0.0 1014289
09:00+9сз710390 0.0 1014719
12:00+14зсз79250 0.0 10112022
15:00+17зсз711205 0.0 10093083
18:00+18зсз610155 0.0 10063514
21:00+13сз34274 0.0 100750
16 мая, вс
вс1600:00+9зсз615310 0.0 1009430
03:00+7зсз715500 0.0 1011641
06:00+5зсз716425 0.0 1011550
09:00+10зсз10144898 0.0 10091009
12:00+16зсз101238100 0.0 10061410
15:00+18зсз9143099 0.0 10042671
18:00+19зсз101730100 0.0 10032792
21:00+14зсз8134691 0.0 1004907
17 мая, пн
пн1700:00+10сз8144684 0.0 10071042
03:00+7сз61151100 0.0 1008418
06:00+5з355584 0.0 100894
09:00+10з2455100 0.0 1005613
12:00+13ююз5846100 0.0 10011387
15:00+15зсз6949100 0.1 9981527
18:00+11ссз71165100 0.0 10001147
21:00+9ссз51268100 0.0 1002844
18 мая, вт
вт1800:00+8сз8135848 0.0 1004724
03:00+5сз915605 0.0 1007554
06:00+3зсз5136760 0.0 1009455
09:00+7сз1012365 0.0 10081726
12:00+11сз912219 0.0 10072454
15:00+13сз9121756 0.0 10052845
18:00+14сз7111796 0.0 10043023
21:00+10сз232882 0.0 100519
19 мая, ср
ср1900:00+6св113176 0.0 100712
03:00+5ю1131100 0.0 100610
06:00+6ю223291 0.0 100419
09:00+10ююв2333100 0.0 1001438
12:00+9с3260100 0.8 1001629
15:00+12ссз445563 1.1 1000893
18:00+13сз455428 0.0 10001049
21:00+9с3466100 0.0 100179